SL-16 R/B (20625 NORAD) Tracking and Keplerian Element Data

This shows tracking and keplerian element data for the satellite.

Feedback or suggestion? Click here.




ElementValue
Catalog20625
NameSL-16 R/B
Epoch Orbit73709
Epoch Day12.84467126
Epoch Year2024
RAAN150.1544
Inclination70.9987
Eccentricity0.0012429
Argument of Perigee55.722
Mean Anonmoly304.5077
Mean Motion14.14795832
Decay Rate3.99E-06
L11 20625U 90046B 24012.84467126 .00000399 00000+0 23133-3 0 9996
L22 20625 70.9987 150.1544 0012429 55.7220 304.5077 14.14795832737092



Live tracking and technical data element details for SL-16 R/B (NORAD 20625). SL-16 R/B can be tracked NOW for your location showing map with azimuth and elevation plus other details from your city location.







IsCatalogInMostPopularTable: catalog: 20625, numindb: 424
Update: records affected: 1



GetName: 20625 SL-16 R/B

Hit Count: updated at: Mon, 15 Apr 2024 00:12:33 GMT